Regional Weather Roundup
Issued by NWS

Home | Current Version | Previous Version | Text Only | Print | Product List | Glossary Off
Versions: 1 2 3 4 5 6 7 8 9 10 11 12 13 14 15 16 17 18 19 20 21 22 23 24 25 26 27 28 29 30 31 32 33 34 35 36 37 38 39 40 41 42 43 44 45 46 47 48 49 50

000
ASUS43 KOAX 011502
RWRNE

WEATHER ROUNDUP FOR NEBRASKA
NATIONAL WEATHER SERVICE OMAHA NE
1000 AM CDT FRI AUG 01 2014

NOTES: SATELLITE DATA IS BEING USED TO AUGMENT CLOUD COVER ABOVE
       12000 FEET.
       "FAIR" INDICATES FEW OR NO CLOUDS BELOW 12,000 FEET WITH NO
       SIGNIFICANT WEATHER AND/OR OBSTRUCTIONS TO VISIBILITY.

  * THESE STATIONS DO NOT REPORT WEATHER SUCH AS RAIN...SNOW OR FOG.

NEZ001>004-019>022-054>056-011600-
NEBRASKA PANHANDLE

CITY           SKY/WX    TMP DP  RH WIND       PRES   REMARKS
SCOTTSBLUFF    SUNNY     71  53  52 VRB5      30.21S
ALLIANCE       SUNNY     74  48  39 VRB3      30.20S
CHADRON        SUNNY     76  50  40 W3        30.14F
KIMBALL        SUNNY     71  54  55 W5        30.25R
SIDNEY         SUNNY     74  49  41 NW7       30.24R
$$

NEZ057>060-069>072-079>082-011600-
SOUTHWEST NEBRASKA

CITY           SKY/WX    TMP DP  RH WIND       PRES   REMARKS
NORTH PLATTE   SUNNY     72  57  59 CALM      30.16R
IMPERIAL       SUNNY     76  57  51 CALM      30.17R
LEXINGTON      SUNNY     72  65  76 N3        30.14S
MCCOOK         SUNNY     73  58  59 CALM      30.15R
OGALLALA       SUNNY     72  55  56 W3        30.17S
$$

NEZ005>010-023>029-035>040-094-011600-
NORTH CENTRAL NEBRASKA

CITY           SKY/WX    TMP DP  RH WIND       PRES   REMARKS
VALENTINE      SUNNY     72  54  53 CALM      30.13R
AINSWORTH      SUNNY     76  56  49 SE9       30.14R
BROKEN BOW     SUNNY     73  63  70 S3        30.15R
O`NEILL        SUNNY     75  62  63 E5        30.13S
ORD            SUNNY     71  61  70 NW6       30.13R
THEDFORD       SUNNY     75  54  49 CALM      30.15S
$$

NEZ041-046>049-061>064-073>077-083>087-011600-
SOUTH CENTRAL NEBRASKA

CITY           SKY/WX    TMP DP  RH WIND       PRES   REMARKS
GRAND ISLAND   SUNNY     71  60  68 N7        30.12R
AURORA         SUNNY     70  64  81 N6        30.11R
HASTINGS       SUNNY     71  60  68 N9        30.11S
HEBRON         SUNNY     71  57  60 N6        30.07R
HOLDREGE       SUNNY     71  63  77 N3        30.13S
KEARNEY *      SUNNY     70  61  73 N8        30.13S
YORK           SUNNY     68  63  83 N8        30.10R
$$

NEZ011>018-030>034-042>045-011600-
NORTHEAST NEBRASKA

CITY           SKY/WX    TMP DP  RH WIND       PRES   REMARKS
NORFOLK        SUNNY     72  59  63 NE3       30.11S
ALBION         SUNNY     69  60  72 NE3       30.12R
BLAIR          MOSUNNY   72  61  68 E3        30.09S
COLUMBUS *     SUNNY     50 N/A N/A NE6       30.11R
FREMONT        SUNNY     73  62  68 E7        30.10S
TEKAMAH        MOSUNNY   73  62  68 N3        30.09F
WAYNE          SUNNY     69  63  81 CALM      30.12S
$$

NEZ050>053-065>068-078-088>093-011600-
SOUTHEAST NEBRASKA

CITY           SKY/WX    TMP DP  RH WIND       PRES   REMARKS
LINCOLN        SUNNY     74  60  61 NE5       30.08R
OMAHA EPPLEY   PTSUNNY   73  61  65 NE3       30.09R
BEATRICE       SUNNY     72  61  68 N3        30.05S
FALLS CITY     CLOUDY    75  62  64 SE10      30.05F
NEBRASKA CITY  PTSUNNY   70  62  77 E8        30.07S
PLATTSMOUTH    CLOUDY    71  62  74 SE5       30.08R
$$

NEZ044-045-051>053-067-011600-
OMAHA AREA

CITY           SKY/WX    TMP DP  RH WIND       PRES   REMARKS
OMAHA EPPLEY   PTSUNNY   73  61  65 NE3       30.09R
BLAIR          MOSUNNY   72  61  68 E3        30.09S
FREMONT        SUNNY     73  62  68 E7        30.10S
MILLARD        PTSUNNY   73  62  67 E5        30.08R
OFFUTT AFB     PTSUNNY   73  65  74 SE6       30.08R
PLATTSMOUTH    CLOUDY    71  62  74 SE5       30.08R
WAHOO          FAIR      73  63  70 E5        30.09S
$$



USA.gov is the U.S. government's official web portal to all federal, state and local government web resources and services.